Year,Month,Day,Hour,Minute,Value (Times are PST for temperature in C)
2009,10,30,00,00,10.10
2009,10,30,00,01,10.10
2009,10,30,00,02,10.10
2009,10,30,00,03,10.10
2009,10,30,00,04,10.10
2009,10,30,00,05,10.00
2009,10,30,00,06,9.90
2009,10,30,00,07,9.90
2009,10,30,00,08,9.90
2009,10,30,00,09,9.90
2009,10,30,00,10,9.90
2009,10,30,00,11,10.00
2009,10,30,00,12,10.00
2009,10,30,00,13,10.00
2009,10,30,00,14,10.00
2009,10,30,00,15,10.00
2009,10,30,00,16,10.00
2009,10,30,00,17,9.90
2009,10,30,00,18,9.90
2009,10,30,00,19,9.90
2009,10,30,00,20,9.90
2009,10,30,00,21,9.90
2009,10,30,00,22,9.90
2009,10,30,00,23,9.90
2009,10,30,00,24,9.90
2009,10,30,00,25,9.90
2009,10,30,00,26,9.90
2009,10,30,00,27,9.90
2009,10,30,00,28,9.90
2009,10,30,00,29,9.90
2009,10,30,00,30,9.90
2009,10,30,00,31,9.90
2009,10,30,00,32,9.90
2009,10,30,00,33,9.90
2009,10,30,00,34,9.90
2009,10,30,00,35,9.90
2009,10,30,00,36,9.90
2009,10,30,00,37,9.90
2009,10,30,00,38,9.90
2009,10,30,00,39,9.90
2009,10,30,00,40,9.90
2009,10,30,00,41,9.90
2009,10,30,00,42,9.90
2009,10,30,00,43,9.90
2009,10,30,00,44,10.10
2009,10,30,00,45,10.10
2009,10,30,00,46,10.10
2009,10,30,00,47,10.10
2009,10,30,00,48,10.10
2009,10,30,00,49,10.10
2009,10,30,00,50,10.10
2009,10,30,00,51,10.10
2009,10,30,00,52,10.10
2009,10,30,00,53,10.10
2009,10,30,00,54,10.10
2009,10,30,00,55,10.10
2009,10,30,00,56,10.10
2009,10,30,00,57,10.10
2009,10,30,00,58,10.10
2009,10,30,00,59,10.10
2009,10,30,01,00,10.20
2009,10,30,01,01,10.20
2009,10,30,01,02,10.30
2009,10,30,01,03,10.40
2009,10,30,01,04,10.40
2009,10,30,01,05,10.40
2009,10,30,01,06,10.40
2009,10,30,01,07,10.40
2009,10,30,01,08,10.40
2009,10,30,01,09,10.40
2009,10,30,01,10,10.40
2009,10,30,01,11,10.40
2009,10,30,01,12,10.40
2009,10,30,01,13,10.40
2009,10,30,01,14,10.40
2009,10,30,01,15,10.40
2009,10,30,01,16,10.40
2009,10,30,01,17,10.40
2009,10,30,01,18,10.40
2009,10,30,01,19,10.40
2009,10,30,01,20,10.40
2009,10,30,01,21,10.40
2009,10,30,01,22,10.40
2009,10,30,01,23,10.50
2009,10,30,01,24,10.60
2009,10,30,01,25,10.60
2009,10,30,01,26,10.70
2009,10,30,01,27,10.80
2009,10,30,01,28,10.80
2009,10,30,01,29,10.80
2009,10,30,01,30,10.80
2009,10,30,01,31,10.80
2009,10,30,01,32,10.80
2009,10,30,01,33,10.90
2009,10,30,01,34,10.90
2009,10,30,01,35,10.90
2009,10,30,01,36,10.90
2009,10,30,01,37,10.90
2009,10,30,01,38,10.90
2009,10,30,01,39,10.90
2009,10,30,01,40,10.90
2009,10,30,01,41,10.90
2009,10,30,01,42,10.90
2009,10,30,01,43,10.90
2009,10,30,01,44,10.90
2009,10,30,01,45,10.90
2009,10,30,01,46,10.90
2009,10,30,01,47,10.90
2009,10,30,01,48,10.90
2009,10,30,01,49,10.90
2009,10,30,01,50,10.90
2009,10,30,01,51,11.00
2009,10,30,01,52,11.10
2009,10,30,01,53,11.10
2009,10,30,01,54,11.10
2009,10,30,01,55,11.10
2009,10,30,01,56,11.10
2009,10,30,01,57,11.10
2009,10,30,01,58,11.10
2009,10,30,01,59,11.10
2009,10,30,02,00,11.10
2009,10,30,02,01,11.10
2009,10,30,02,02,11.10
2009,10,30,02,03,11.10
2009,10,30,02,04,11.10
2009,10,30,02,05,11.10
2009,10,30,02,06,11.10
2009,10,30,02,07,11.10
2009,10,30,02,08,11.10
2009,10,30,02,09,11.10
2009,10,30,02,10,11.10
2009,10,30,02,11,11.10
2009,10,30,02,12,11.10
2009,10,30,02,13,11.10
2009,10,30,02,14,11.10
2009,10,30,02,15,11.10
2009,10,30,02,16,11.10
2009,10,30,02,17,11.10
2009,10,30,02,18,11.10
2009,10,30,02,19,11.10
2009,10,30,02,20,11.10
2009,10,30,02,21,11.10
2009,10,30,02,22,11.10
2009,10,30,02,23,11.10
2009,10,30,02,24,11.10
2009,10,30,02,25,11.10
2009,10,30,02,26,11.20
2009,10,30,02,27,11.20
2009,10,30,02,28,11.20
2009,10,30,02,29,11.10
2009,10,30,02,30,11.10
2009,10,30,02,31,11.10
2009,10,30,02,32,11.10
2009,10,30,02,33,11.10
2009,10,30,02,34,11.10
2009,10,30,02,35,11.10
2009,10,30,02,36,11.10
2009,10,30,02,37,11.10
2009,10,30,02,38,11.10
2009,10,30,02,39,11.10
2009,10,30,02,40,11.10
2009,10,30,02,41,11.10
2009,10,30,02,42,11.10
2009,10,30,02,43,11.10
2009,10,30,02,44,11.10
2009,10,30,02,45,11.10
2009,10,30,02,46,11.10
2009,10,30,02,47,11.10
2009,10,30,02,48,11.10
2009,10,30,02,49,11.10
2009,10,30,02,50,11.10
2009,10,30,02,51,11.00
2009,10,30,02,52,10.90
2009,10,30,02,53,10.90
2009,10,30,02,54,10.90
2009,10,30,02,55,10.90
2009,10,30,02,56,10.90
2009,10,30,02,57,10.90
2009,10,30,02,58,10.90
2009,10,30,02,59,10.90
2009,10,30,03,00,10.80
2009,10,30,03,01,10.80
2009,10,30,03,02,10.80
2009,10,30,03,03,10.80
2009,10,30,03,04,10.80
2009,10,30,03,05,10.80
2009,10,30,03,06,10.70
2009,10,30,03,07,10.70
2009,10,30,03,08,10.70
2009,10,30,03,09,10.80
2009,10,30,03,10,10.80
2009,10,30,03,11,10.90
2009,10,30,03,12,10.90
2009,10,30,03,13,10.90
2009,10,30,03,14,10.90
2009,10,30,03,15,10.90
2009,10,30,03,16,10.80
2009,10,30,03,17,10.80
2009,10,30,03,18,10.80
2009,10,30,03,19,10.70
2009,10,30,03,20,10.70
2009,10,30,03,21,10.70
2009,10,30,03,22,10.70
2009,10,30,03,23,10.70
2009,10,30,03,24,10.70
2009,10,30,03,25,10.60
2009,10,30,03,26,10.60
2009,10,30,03,27,10.60
2009,10,30,03,28,10.60
2009,10,30,03,29,10.60
2009,10,30,03,30,10.60
2009,10,30,03,31,10.60
2009,10,30,03,32,10.60
2009,10,30,03,33,10.60
2009,10,30,03,34,10.60
2009,10,30,03,35,10.60
2009,10,30,03,36,10.60
2009,10,30,03,37,10.60
2009,10,30,03,38,10.60
2009,10,30,03,39,10.60
2009,10,30,03,40,10.60
2009,10,30,03,41,10.60
2009,10,30,03,42,10.60
2009,10,30,03,43,10.60
2009,10,30,03,44,10.60
2009,10,30,03,45,10.60
2009,10,30,03,46,10.60
2009,10,30,03,47,10.60
2009,10,30,03,48,10.60
2009,10,30,03,49,10.60
2009,10,30,03,50,10.50
2009,10,30,03,51,10.40
2009,10,30,03,52,10.40
2009,10,30,03,53,10.40
2009,10,30,03,54,10.40
2009,10,30,03,55,10.40
2009,10,30,03,56,10.40
2009,10,30,03,57,10.40
2009,10,30,03,58,10.40
2009,10,30,03,59,10.40
2009,10,30,04,00,10.50
2009,10,30,04,01,10.60
2009,10,30,04,02,10.60
2009,10,30,04,03,10.60
2009,10,30,04,04,10.60
2009,10,30,04,05,10.60
2009,10,30,04,06,10.60
2009,10,30,04,07,10.60
2009,10,30,04,08,10.60
2009,10,30,04,09,10.60
2009,10,30,04,10,10.60
2009,10,30,04,11,10.60
2009,10,30,04,12,10.60
2009,10,30,04,13,10.60
2009,10,30,04,14,10.70
2009,10,30,04,15,10.70
2009,10,30,04,16,10.70
2009,10,30,04,17,10.70
2009,10,30,04,18,10.80
2009,10,30,04,19,10.90
2009,10,30,04,20,10.90
2009,10,30,04,21,11.10
2009,10,30,04,22,11.10
2009,10,30,04,23,11.20
2009,10,30,04,24,11.20
2009,10,30,04,25,11.20
2009,10,30,04,26,11.30
2009,10,30,04,27,11.30
2009,10,30,04,28,11.30
2009,10,30,04,29,11.30
2009,10,30,04,30,11.40
2009,10,30,04,31,11.40
2009,10,30,04,32,11.50
2009,10,30,04,33,11.60
2009,10,30,04,34,11.60
2009,10,30,04,35,11.60
2009,10,30,04,36,11.60
2009,10,30,04,37,11.60
2009,10,30,04,38,11.60
2009,10,30,04,39,11.70
2009,10,30,04,40,11.70
2009,10,30,04,41,11.70
2009,10,30,04,42,11.80
2009,10,30,04,43,11.80
2009,10,30,04,44,11.80
2009,10,30,04,45,11.80
2009,10,30,04,46,11.80
2009,10,30,04,47,11.90
2009,10,30,04,48,11.90
2009,10,30,04,49,11.90
2009,10,30,04,50,11.90
2009,10,30,04,51,11.90
2009,10,30,04,52,11.90
2009,10,30,04,53,12.00
2009,10,30,04,54,12.00
2009,10,30,04,55,12.00
2009,10,30,04,56,12.00
2009,10,30,04,57,12.00
2009,10,30,04,58,12.00
2009,10,30,04,59,12.10
2009,10,30,05,00,12.10
2009,10,30,05,01,12.10
2009,10,30,05,02,12.10
2009,10,30,05,03,12.10
2009,10,30,05,04,12.10
2009,10,30,05,05,12.10
2009,10,30,05,06,12.20
2009,10,30,05,07,12.20
2009,10,30,05,08,12.20
2009,10,30,05,09,12.30
2009,10,30,05,10,12.30
2009,10,30,05,11,12.30
2009,10,30,05,12,12.30
2009,10,30,05,13,12.30
2009,10,30,05,14,12.30
2009,10,30,05,15,12.30
2009,10,30,05,16,12.30
2009,10,30,05,17,12.30
2009,10,30,05,18,12.40
2009,10,30,05,19,12.40
2009,10,30,05,20,12.40
2009,10,30,05,21,12.30
2009,10,30,05,22,12.30
2009,10,30,05,23,12.30
2009,10,30,05,24,12.30
2009,10,30,05,25,12.30
2009,10,30,05,26,12.30
2009,10,30,05,27,12.30
2009,10,30,05,28,12.40
2009,10,30,05,29,12.40
2009,10,30,05,30,12.40
2009,10,30,05,31,12.40
2009,10,30,05,32,12.40
2009,10,30,05,33,12.40
2009,10,30,05,34,12.40
2009,10,30,05,35,12.50
2009,10,30,05,36,12.50
2009,10,30,05,37,12.50
2009,10,30,05,38,12.50
2009,10,30,05,39,12.40
2009,10,30,05,40,12.40
2009,10,30,05,41,12.40
2009,10,30,05,42,12.40
2009,10,30,05,43,12.40
2009,10,30,05,44,12.40
2009,10,30,05,45,12.40
2009,10,30,05,46,12.40
2009,10,30,05,47,12.40
2009,10,30,05,48,12.40
2009,10,30,05,49,12.40
2009,10,30,05,50,12.40
2009,10,30,05,51,12.40
2009,10,30,05,52,12.40
2009,10,30,05,53,12.40
2009,10,30,05,54,12.40
2009,10,30,05,55,12.40
2009,10,30,05,56,12.50
2009,10,30,05,57,12.50
2009,10,30,05,58,12.50
2009,10,30,05,59,12.50
2009,10,30,06,00,12.50
2009,10,30,06,01,12.60
2009,10,30,06,02,12.60
2009,10,30,06,03,12.60
2009,10,30,06,04,12.60
2009,10,30,06,05,12.70
2009,10,30,06,06,12.70
2009,10,30,06,07,12.80
2009,10,30,06,08,12.80
2009,10,30,06,09,12.90
2009,10,30,06,10,12.90
2009,10,30,06,11,13.00
2009,10,30,06,12,13.10
2009,10,30,06,13,13.10
2009,10,30,06,14,13.20
2009,10,30,06,15,13.30
2009,10,30,06,16,13.30
2009,10,30,06,17,13.30
2009,10,30,06,18,13.30
2009,10,30,06,19,13.30
2009,10,30,06,20,13.40
2009,10,30,06,21,13.40
2009,10,30,06,22,13.50
2009,10,30,06,23,13.50
2009,10,30,06,24,13.50
2009,10,30,06,25,13.50
2009,10,30,06,26,13.50
2009,10,30,06,27,13.50
2009,10,30,06,28,13.50
2009,10,30,06,29,13.50
2009,10,30,06,30,13.50
2009,10,30,06,31,13.50
2009,10,30,06,32,13.50
2009,10,30,06,33,13.60
2009,10,30,06,34,13.50
2009,10,30,06,35,13.50
2009,10,30,06,36,13.50
2009,10,30,06,37,13.50
2009,10,30,06,38,13.50
2009,10,30,06,39,13.50
2009,10,30,06,40,13.60
2009,10,30,06,41,13.60
2009,10,30,06,42,13.60
2009,10,30,06,43,13.60
2009,10,30,06,44,13.70
2009,10,30,06,45,13.70
2009,10,30,06,46,13.70
2009,10,30,06,47,13.70
2009,10,30,06,48,13.70
2009,10,30,06,49,13.70
2009,10,30,06,50,13.70
2009,10,30,06,51,13.70
2009,10,30,06,52,13.70
2009,10,30,06,53,13.70
2009,10,30,06,54,13.70
2009,10,30,06,55,13.70
2009,10,30,06,56,13.70
2009,10,30,06,57,13.70
2009,10,30,06,58,13.70
2009,10,30,06,59,13.70
2009,10,30,07,00,13.70
2009,10,30,07,01,13.70
2009,10,30,07,02,13.70
2009,10,30,07,03,13.70
2009,10,30,07,04,13.70
2009,10,30,07,05,13.70
2009,10,30,07,06,13.70
2009,10,30,07,07,13.60
2009,10,30,07,08,13.60
2009,10,30,07,09,13.70
2009,10,30,07,10,13.70
2009,10,30,07,11,13.70
2009,10,30,07,12,13.70
2009,10,30,07,13,13.70
2009,10,30,07,14,13.70
2009,10,30,07,15,13.70
2009,10,30,07,16,13.70
2009,10,30,07,17,13.70
2009,10,30,07,18,13.70
2009,10,30,07,19,13.70
2009,10,30,07,20,13.70
2009,10,30,07,21,13.70
2009,10,30,07,22,13.70
2009,10,30,07,23,13.70
2009,10,30,07,24,13.70
2009,10,30,07,25,13.70
2009,10,30,07,26,13.70
2009,10,30,07,27,13.70
2009,10,30,07,28,13.70
2009,10,30,07,29,13.70
2009,10,30,07,30,13.70
2009,10,30,07,31,13.70
2009,10,30,07,32,13.70
2009,10,30,07,33,13.70
2009,10,30,07,34,13.80
2009,10,30,07,35,13.80
2009,10,30,07,36,13.80
2009,10,30,07,37,13.80
2009,10,30,07,38,13.80
2009,10,30,07,39,13.80
2009,10,30,07,40,13.80
2009,10,30,07,41,13.80
2009,10,30,07,42,13.80
2009,10,30,07,43,13.80
2009,10,30,07,44,13.80
2009,10,30,07,45,13.80
2009,10,30,07,46,13.80
2009,10,30,07,47,13.80
2009,10,30,07,48,13.80
2009,10,30,07,49,13.80
2009,10,30,07,50,13.80
2009,10,30,07,51,13.80
2009,10,30,07,52,13.80
2009,10,30,07,53,13.80
2009,10,30,07,54,13.80
2009,10,30,07,55,13.80
2009,10,30,07,56,13.70
2009,10,30,07,57,13.70
2009,10,30,07,58,13.70
2009,10,30,07,59,13.70
2009,10,30,08,00,13.70
2009,10,30,08,01,13.70
2009,10,30,08,02,13.70
2009,10,30,08,03,13.70
2009,10,30,08,04,13.70
2009,10,30,08,05,13.70
2009,10,30,08,06,13.70
2009,10,30,08,07,13.70
2009,10,30,08,08,13.70
2009,10,30,08,09,13.70
2009,10,30,08,10,13.70
2009,10,30,08,11,13.70
2009,10,30,08,12,13.70
2009,10,30,08,13,13.70
2009,10,30,08,14,13.70
2009,10,30,08,15,13.70
2009,10,30,08,16,13.70
2009,10,30,08,17,13.70
2009,10,30,08,18,13.70
2009,10,30,08,19,13.70
2009,10,30,08,20,13.70
2009,10,30,08,21,13.70
2009,10,30,08,22,13.70
2009,10,30,08,23,13.70
2009,10,30,08,24,13.70
2009,10,30,08,25,13.70
2009,10,30,08,26,13.70
2009,10,30,08,27,13.70
2009,10,30,08,28,13.70
2009,10,30,08,29,13.70
2009,10,30,08,30,13.70
2009,10,30,08,31,13.70
2009,10,30,08,32,13.70
2009,10,30,08,33,13.70
2009,10,30,08,34,13.70
2009,10,30,08,35,13.70
2009,10,30,08,36,13.70
2009,10,30,08,37,13.70
2009,10,30,08,38,13.70
2009,10,30,08,39,13.70
2009,10,30,08,40,13.70
2009,10,30,08,41,13.80
2009,10,30,08,42,13.80
2009,10,30,08,43,13.80
2009,10,30,08,44,13.90
2009,10,30,08,45,13.90
2009,10,30,08,46,13.90
2009,10,30,08,47,13.90
2009,10,30,08,48,13.90
2009,10,30,08,49,13.90
2009,10,30,08,50,13.90
2009,10,30,08,51,13.90
2009,10,30,08,52,13.90
2009,10,30,08,53,14.00
2009,10,30,08,54,14.00
2009,10,30,08,55,14.00
2009,10,30,08,56,14.00
2009,10,30,08,57,14.00
2009,10,30,08,58,14.00
2009,10,30,08,59,14.00
2009,10,30,09,00,14.00
2009,10,30,09,01,14.10
2009,10,30,09,02,14.10
2009,10,30,09,03,14.20
2009,10,30,09,04,14.20
2009,10,30,09,05,14.20
2009,10,30,09,06,14.20
2009,10,30,09,07,14.20
2009,10,30,09,08,14.20
2009,10,30,09,09,14.30
2009,10,30,09,10,14.30
2009,10,30,09,11,14.30
2009,10,30,09,12,14.40
2009,10,30,09,13,14.40
2009,10,30,09,14,14.50
2009,10,30,09,15,14.50
2009,10,30,09,16,14.60
2009,10,30,09,17,14.60
2009,10,30,09,18,14.60
2009,10,30,09,19,14.60
2009,10,30,09,20,14.60
2009,10,30,09,21,14.50
2009,10,30,09,22,14.50
2009,10,30,09,23,14.50
2009,10,30,09,24,14.50
2009,10,30,09,25,14.50
2009,10,30,09,26,14.60
2009,10,30,09,27,14.60
2009,10,30,09,28,14.60
2009,10,30,09,29,14.60
2009,10,30,09,30,14.60
2009,10,30,09,31,14.60
2009,10,30,09,32,14.60
2009,10,30,09,33,14.70
2009,10,30,09,34,14.70
2009,10,30,09,35,14.70
2009,10,30,09,36,14.80
2009,10,30,09,37,14.80
2009,10,30,09,38,14.80
2009,10,30,09,39,14.80
2009,10,30,09,40,14.80
2009,10,30,09,41,14.80
2009,10,30,09,42,14.80
2009,10,30,09,43,14.80
2009,10,30,09,44,14.80
2009,10,30,09,45,14.80
2009,10,30,09,46,14.80
2009,10,30,09,47,14.80
2009,10,30,09,48,14.80
2009,10,30,09,49,14.70
2009,10,30,09,50,14.80
2009,10,30,09,51,14.80
2009,10,30,09,52,14.80
2009,10,30,09,53,14.80
2009,10,30,09,54,14.80
2009,10,30,09,55,14.80
2009,10,30,09,56,14.80
2009,10,30,09,57,14.80
2009,10,30,09,58,14.80
2009,10,30,09,59,14.80
2009,10,30,10,00,14.80
2009,10,30,10,01,14.80
2009,10,30,10,02,14.80
2009,10,30,10,03,14.80
2009,10,30,10,04,14.80
2009,10,30,10,05,14.80
2009,10,30,10,06,14.90
2009,10,30,10,07,14.90
2009,10,30,10,08,14.90
2009,10,30,10,09,14.90
2009,10,30,10,10,14.90
2009,10,30,10,11,14.90
2009,10,30,10,12,14.90
2009,10,30,10,13,14.90
2009,10,30,10,14,14.90
2009,10,30,10,15,14.90
2009,10,30,10,16,14.90
2009,10,30,10,17,14.90
2009,10,30,10,18,14.90
2009,10,30,10,19,14.90
2009,10,30,10,20,14.90
2009,10,30,10,21,14.90
2009,10,30,10,22,14.90
2009,10,30,10,23,14.90
2009,10,30,10,24,14.90
2009,10,30,10,25,14.90
2009,10,30,10,26,14.90
2009,10,30,10,27,14.90
2009,10,30,10,28,14.90
2009,10,30,10,29,14.90
2009,10,30,10,30,14.90
2009,10,30,10,31,14.70
2009,10,30,10,32,14.60
2009,10,30,10,33,14.50
2009,10,30,10,34,14.40
2009,10,30,10,35,14.40
2009,10,30,10,36,14.40
2009,10,30,10,37,14.40
2009,10,30,10,38,14.40
2009,10,30,10,39,14.50
2009,10,30,10,40,14.50
2009,10,30,10,41,14.50
2009,10,30,10,42,14.50
2009,10,30,10,43,14.60
2009,10,30,10,44,14.60
2009,10,30,10,45,14.60
2009,10,30,10,46,14.60
2009,10,30,10,47,14.60
2009,10,30,10,48,14.60
2009,10,30,10,49,14.70
2009,10,30,10,50,14.70
2009,10,30,10,51,14.70
2009,10,30,10,52,14.80
2009,10,30,10,53,14.80
2009,10,30,10,54,14.80
2009,10,30,10,55,14.80
2009,10,30,10,56,14.80
2009,10,30,10,57,14.80
2009,10,30,10,58,14.80
2009,10,30,10,59,14.80
2009,10,30,11,00,14.80
2009,10,30,11,01,14.70
2009,10,30,11,02,14.70
2009,10,30,11,03,14.60
2009,10,30,11,04,14.60
2009,10,30,11,05,14.50
2009,10,30,11,06,14.50
2009,10,30,11,07,14.40
2009,10,30,11,08,14.40
2009,10,30,11,09,14.30
2009,10,30,11,10,14.30
2009,10,30,11,11,14.20
2009,10,30,11,12,14.20
2009,10,30,11,13,14.20
2009,10,30,11,14,14.20
2009,10,30,11,15,14.20
2009,10,30,11,16,14.10
2009,10,30,11,17,14.10
2009,10,30,11,18,14.00
2009,10,30,11,19,14.00
2009,10,30,11,20,14.00
2009,10,30,11,21,14.00
2009,10,30,11,22,13.90
2009,10,30,11,23,13.90
2009,10,30,11,24,13.90
2009,10,30,11,25,13.90
2009,10,30,11,26,13.90
2009,10,30,11,27,13.90
2009,10,30,11,28,13.90
2009,10,30,11,29,13.90
2009,10,30,11,30,13.90
2009,10,30,11,31,13.90
2009,10,30,11,32,13.90
2009,10,30,11,33,13.90
2009,10,30,11,34,13.80
2009,10,30,11,35,13.80
2009,10,30,11,36,13.80
2009,10,30,11,37,13.90
2009,10,30,11,38,13.90
2009,10,30,11,39,13.90
2009,10,30,11,40,13.90
2009,10,30,11,41,13.90
2009,10,30,11,42,13.90
2009,10,30,11,43,13.80
2009,10,30,11,44,13.80
2009,10,30,11,45,13.80
2009,10,30,11,46,13.80
2009,10,30,11,47,13.80
2009,10,30,11,48,13.80
2009,10,30,11,49,13.80
2009,10,30,11,50,13.80
2009,10,30,11,51,13.80
2009,10,30,11,52,13.80
2009,10,30,11,53,13.90
2009,10,30,11,54,13.90
2009,10,30,11,55,13.90
2009,10,30,11,56,13.90
2009,10,30,11,57,14.00
2009,10,30,11,58,14.00
2009,10,30,11,59,14.00
2009,10,30,12,00,14.00
2009,10,30,12,01,14.10
2009,10,30,12,02,14.10
2009,10,30,12,03,14.10
2009,10,30,12,04,14.20
2009,10,30,12,05,14.20
2009,10,30,12,06,14.20
2009,10,30,12,07,14.20
2009,10,30,12,08,14.20
2009,10,30,12,09,14.20
2009,10,30,12,10,14.20
2009,10,30,12,11,14.20
2009,10,30,12,12,14.30
2009,10,30,12,13,14.30
2009,10,30,12,14,14.30
2009,10,30,12,15,14.30
2009,10,30,12,16,14.30
2009,10,30,12,17,14.40
2009,10,30,12,18,14.40
2009,10,30,12,19,14.40
2009,10,30,12,20,14.40
2009,10,30,12,21,14.30
2009,10,30,12,22,14.40
2009,10,30,12,23,14.40
2009,10,30,12,24,14.40
2009,10,30,12,25,14.40
2009,10,30,12,26,14.40
2009,10,30,12,27,14.40
2009,10,30,12,28,14.50
2009,10,30,12,29,14.50
2009,10,30,12,30,14.50
2009,10,30,12,31,14.50
2009,10,30,12,32,14.50
2009,10,30,12,33,14.60
2009,10,30,12,34,14.60
2009,10,30,12,35,14.70
2009,10,30,12,36,14.70
2009,10,30,12,37,14.80
2009,10,30,12,38,14.80
2009,10,30,12,39,14.80
2009,10,30,12,40,14.80
2009,10,30,12,41,14.90
2009,10,30,12,42,14.90
2009,10,30,12,43,14.90
2009,10,30,12,44,15.00
2009,10,30,12,45,15.00
2009,10,30,12,46,15.00
2009,10,30,12,47,15.00
2009,10,30,12,48,15.10
2009,10,30,12,49,15.10
2009,10,30,12,50,15.10
2009,10,30,12,51,15.20
2009,10,30,12,52,15.20
2009,10,30,12,53,15.20
2009,10,30,12,54,15.20
2009,10,30,12,55,15.30
2009,10,30,12,56,15.30
2009,10,30,12,57,15.30
2009,10,30,12,58,15.40
2009,10,30,12,59,15.50
2009,10,30,13,00,15.60
2009,10,30,13,01,15.70
2009,10,30,13,02,15.80
2009,10,30,13,03,15.80
2009,10,30,13,04,15.90
2009,10,30,13,05,16.00
2009,10,30,13,06,16.10
2009,10,30,13,07,16.10
2009,10,30,13,08,16.20
2009,10,30,13,09,16.20
2009,10,30,13,10,16.20
2009,10,30,13,11,16.10
2009,10,30,13,12,16.10
2009,10,30,13,13,16.00
2009,10,30,13,14,15.90
2009,10,30,13,15,15.90
2009,10,30,13,16,15.80
2009,10,30,13,17,15.80
2009,10,30,13,18,15.70
2009,10,30,13,19,15.60
2009,10,30,13,20,15.60
2009,10,30,13,21,15.50
2009,10,30,13,22,15.50
2009,10,30,13,23,15.50
2009,10,30,13,24,15.40
2009,10,30,13,25,15.30
2009,10,30,13,26,15.20
2009,10,30,13,27,15.20
2009,10,30,13,28,15.20
2009,10,30,13,29,15.20
2009,10,30,13,30,15.20
2009,10,30,13,31,15.20
2009,10,30,13,32,15.20
2009,10,30,13,33,15.20
2009,10,30,13,34,15.30
2009,10,30,13,35,15.30
2009,10,30,13,36,15.30
2009,10,30,13,37,15.40
2009,10,30,13,38,15.40
2009,10,30,13,39,15.50
2009,10,30,13,40,15.50
2009,10,30,13,41,15.50
2009,10,30,13,42,15.50
2009,10,30,13,43,15.60
2009,10,30,13,44,15.60
2009,10,30,13,45,15.60
2009,10,30,13,46,15.70
2009,10,30,13,47,15.70
2009,10,30,13,48,15.70
2009,10,30,13,49,15.70
2009,10,30,13,50,15.70
2009,10,30,13,51,15.70
2009,10,30,13,52,15.70
2009,10,30,13,53,15.70
2009,10,30,13,54,15.70
2009,10,30,13,55,15.80
2009,10,30,13,56,15.80
2009,10,30,13,57,15.80
2009,10,30,13,58,15.80
2009,10,30,13,59,15.70
2009,10,30,14,00,15.70
2009,10,30,14,01,15.70
2009,10,30,14,02,15.60
2009,10,30,14,03,15.60
2009,10,30,14,04,15.70
2009,10,30,14,05,15.70
2009,10,30,14,06,15.60
2009,10,30,14,07,15.60
2009,10,30,14,08,15.60
2009,10,30,14,09,15.60
2009,10,30,14,10,15.60
2009,10,30,14,11,15.60
2009,10,30,14,12,15.60
2009,10,30,14,13,15.60
2009,10,30,14,14,15.60
2009,10,30,14,15,15.60
2009,10,30,14,16,15.60
2009,10,30,14,17,15.60
2009,10,30,14,18,15.60
2009,10,30,14,19,15.50
2009,10,30,14,20,15.50
2009,10,30,14,21,15.50
2009,10,30,14,22,15.50
2009,10,30,14,23,15.50
2009,10,30,14,24,15.30
2009,10,30,14,25,15.30
2009,10,30,14,26,15.30
2009,10,30,14,27,15.20
2009,10,30,14,28,15.10
2009,10,30,14,29,15.10
2009,10,30,14,30,15.10
2009,10,30,14,31,15.10
2009,10,30,14,32,15.10
2009,10,30,14,33,15.10
2009,10,30,14,34,15.10
2009,10,30,14,35,15.10
2009,10,30,14,36,15.10
2009,10,30,14,37,15.20
2009,10,30,14,38,15.20
2009,10,30,14,39,15.20
2009,10,30,14,40,15.20
2009,10,30,14,41,15.30
2009,10,30,14,42,15.30
2009,10,30,14,43,15.40
2009,10,30,14,44,15.40
2009,10,30,14,45,15.50
2009,10,30,14,46,15.50
2009,10,30,14,47,15.60
2009,10,30,14,48,15.60
2009,10,30,14,49,15.70
2009,10,30,14,50,15.70
2009,10,30,14,51,15.80
2009,10,30,14,52,15.90
2009,10,30,14,53,15.90
2009,10,30,14,54,15.80
2009,10,30,14,55,15.80
2009,10,30,14,56,15.70
2009,10,30,14,57,15.70
2009,10,30,14,58,15.60
2009,10,30,14,59,15.60
2009,10,30,15,00,15.60
2009,10,30,15,01,15.50
2009,10,30,15,02,15.60
2009,10,30,15,03,15.60
2009,10,30,15,04,15.60
2009,10,30,15,05,15.60
2009,10,30,15,06,15.70
2009,10,30,15,07,15.60
2009,10,30,15,08,15.60
2009,10,30,15,09,15.60
2009,10,30,15,10,15.60
2009,10,30,15,11,15.70
2009,10,30,15,12,15.70
2009,10,30,15,13,15.80
2009,10,30,15,14,15.80
2009,10,30,15,15,15.70
2009,10,30,15,16,15.80
2009,10,30,15,17,15.80
2009,10,30,15,18,15.80
2009,10,30,15,19,15.80
2009,10,30,15,20,15.80
2009,10,30,15,21,15.80
2009,10,30,15,22,15.90
2009,10,30,15,23,16.00
2009,10,30,15,24,16.10
2009,10,30,15,25,16.10
2009,10,30,15,26,16.10
2009,10,30,15,27,16.10
2009,10,30,15,28,16.10
2009,10,30,15,29,16.10
2009,10,30,15,30,16.00
2009,10,30,15,31,15.90
2009,10,30,15,32,15.90
2009,10,30,15,33,15.80
2009,10,30,15,34,15.90
2009,10,30,15,35,16.00
2009,10,30,15,36,16.10
2009,10,30,15,37,16.10
2009,10,30,15,38,16.10
2009,10,30,15,39,16.10
2009,10,30,15,40,16.00
2009,10,30,15,41,15.80
2009,10,30,15,42,15.80
2009,10,30,15,43,15.80
2009,10,30,15,44,15.80
2009,10,30,15,45,15.80
2009,10,30,15,46,15.80
2009,10,30,15,47,15.80
2009,10,30,15,48,15.80
2009,10,30,15,49,15.70
2009,10,30,15,50,15.60
2009,10,30,15,51,15.50
2009,10,30,15,52,15.30
2009,10,30,15,53,15.20
2009,10,30,15,54,15.10
2009,10,30,15,55,14.90
2009,10,30,15,56,14.70
2009,10,30,15,57,14.50
2009,10,30,15,58,14.30
2009,10,30,15,59,14.20
2009,10,30,16,00,14.10
2009,10,30,16,01,14.00
2009,10,30,16,02,13.90
2009,10,30,16,03,13.90
2009,10,30,16,04,13.90
2009,10,30,16,05,13.90
2009,10,30,16,06,13.80
2009,10,30,16,07,13.80
2009,10,30,16,08,13.80
2009,10,30,16,09,13.70
2009,10,30,16,10,13.70
2009,10,30,16,11,13.70
2009,10,30,16,12,13.70
2009,10,30,16,13,13.70
2009,10,30,16,14,13.60
2009,10,30,16,15,13.50
2009,10,30,16,16,13.50
2009,10,30,16,17,13.40
2009,10,30,16,18,13.40
2009,10,30,16,19,13.30
2009,10,30,16,20,13.30
2009,10,30,16,21,13.30
2009,10,30,16,22,13.30
2009,10,30,16,23,13.30
2009,10,30,16,24,13.20
2009,10,30,16,25,13.20
2009,10,30,16,26,13.20
2009,10,30,16,27,13.20
2009,10,30,16,28,13.20
2009,10,30,16,29,13.20
2009,10,30,16,30,13.20
2009,10,30,16,31,13.20
2009,10,30,16,32,13.20
2009,10,30,16,33,13.20
2009,10,30,16,34,13.30
2009,10,30,16,35,13.30
2009,10,30,16,36,13.30
2009,10,30,16,37,13.30
2009,10,30,16,38,13.30
2009,10,30,16,39,13.30
2009,10,30,16,40,13.40
2009,10,30,16,41,13.40
2009,10,30,16,42,13.50
2009,10,30,16,43,13.50
2009,10,30,16,44,13.50
2009,10,30,16,45,13.50
2009,10,30,16,46,13.60
2009,10,30,16,47,13.60
2009,10,30,16,48,13.60
2009,10,30,16,49,13.60
2009,10,30,16,50,13.60
2009,10,30,16,51,13.60
2009,10,30,16,52,13.60
2009,10,30,16,53,13.70
2009,10,30,16,54,13.70
2009,10,30,16,55,13.70
2009,10,30,16,56,13.70
2009,10,30,16,57,13.70
2009,10,30,16,58,13.70
2009,10,30,16,59,13.70
2009,10,30,17,00,13.70
2009,10,30,17,01,13.70
2009,10,30,17,02,13.70
2009,10,30,17,03,13.70
2009,10,30,17,04,13.70
2009,10,30,17,05,13.70
2009,10,30,17,06,13.70
2009,10,30,17,07,13.70
2009,10,30,17,08,13.70
2009,10,30,17,09,13.70
2009,10,30,17,10,13.70
2009,10,30,17,11,13.70
2009,10,30,17,12,13.70
2009,10,30,17,13,13.60
2009,10,30,17,14,13.60
2009,10,30,17,15,13.60
2009,10,30,17,16,13.60
2009,10,30,17,17,13.60
2009,10,30,17,18,13.60
2009,10,30,17,19,13.60
2009,10,30,17,20,13.60